Location: Leuk
(46.3174°N, 7.6341°E)
Time: 01:58:30
(UTC+00:00)

Cosmos 2360 Rocket - Visible Passes

Search period start: 14 June 2021 00:00
Search period end: 24 June 2021 00:00
Orbit: 835 x 844 km, 71.0° (Epoch: 13 June)

Date Brightness Start Highest point End Pass type
(mag) Time Alt. Az. Time Alt. Az. Time Alt. Az.
14 Jun 4.9 00:21:04 10° NW 00:22:51 11° NNW 00:24:38 10° NNW visible
14 Jun 3.1 20:33:03 10° SSE 20:37:48 29° ESE 20:42:34 10° NE visible
14 Jun 3.1 22:16:04 10° SW 22:21:32 49° WNW 22:27:01 10° NNE visible
15 Jun 4.9 00:04:56 10° NW 00:07:01 12° NW 00:09:05 10° NNW visible
15 Jun 3.2 20:17:26 10° SSE 20:22:04 27° ESE 20:26:44 10° NE visible
15 Jun 3.0 22:00:16 10° SW 22:05:45 51° WNW 22:11:17 10° NNE visible
15 Jun 4.9 23:48:51 10° WNW 23:51:10 12° NW 23:53:30 10° N visible
16 Jun 3.2 20:01:50 10° SSE 20:06:22 25° ESE 20:10:53 10° NE visible
16 Jun 2.9 21:44:27 10° SW 21:49:59 54° WNW 21:55:32 10° NNE visible
16 Jun 4.9 23:32:47 10° WNW 23:35:20 13° NW 23:37:53 10° N visible
17 Jun 2.8 21:28:39 10° SW 21:34:13 58° WNW 21:39:48 10° NNE visible
17 Jun 5.0 23:16:45 10° WNW 23:19:30 14° NW 23:22:15 10° N visible
18 Jun 2.7 21:12:51 10° SW 21:18:27 61° WNW 21:24:03 10° NNE visible
18 Jun 5.0 23:00:43 10° WNW 23:03:40 14° NW 23:06:37 10° N visible
19 Jun 2.7 20:57:04 10° SW 21:02:40 65° WNW 21:08:18 10° NNE visible
19 Jun 5.0 22:44:43 10° WNW 22:47:50 15° NW 22:50:58 10° N visible
20 Jun 2.6 20:41:17 10° SW 20:46:54 69° WNW 20:52:33 10° NNE visible
20 Jun 5.0 22:28:44 10° WNW 22:32:01 15° NW 22:35:18 10° N visible
21 Jun 2.5 20:25:30 10° SSW 20:31:09 73° WNW 20:36:48 10° NNE visible
21 Jun 5.0 22:12:45 10° WNW 22:16:11 16° NW 22:19:38 10° N visible
22 Jun 2.4 20:09:44 10° SSW 20:15:23 77° WNW 20:21:04 10° NNE visible
22 Jun 5.0 21:56:47 10° W 22:00:22 17° NW 22:03:58 10° N visible
23 Jun 2.4 19:53:58 10° SSW 19:59:37 81° WNW 20:05:18 10° NNE visible
23 Jun 5.1 21:40:49 10° W 21:44:33 18° NW 21:48:17 10° N visible
